Погода в Берлинке

Россия / Томская область     56°49′48″N   86°33′06″E
темп.,
°C
ветер,
м/с
пор.,
м/с
влажн.,
%
обл.,
%
осадки,
мм/ч
давл.,
гПа
погр.,
м
16 апреля, пт
пт1601:00+3юз61498100 0.0 1017468
04:00+3юз71598100 0.1 1014462
07:00+3юз71497100 0.1 1013472
10:00+3юз71597100 0.0 1012620
13:00+6юз81696100 0.0 1010722
16:00+6зюз71597100 0.4 1008800
19:000ссз51097100 1.9 1012528
22:000ссз4897100 1.9 1014603
17 апреля, сб
сб1701:00−1сз6119282 2.1 1016685
04:00−5с5108240 0.0 1020613
07:00−8с57765 0.0 1023575
10:00−6с34595 0.0 1024782
13:00−3ссв224832 0.0 1023905
16:00−1юв114439 0.0 1021956
19:00−1ююз2248100 0.0 1020793
22:00−3ююз3564100 0.0 1020126
18 апреля, вс
вс1801:00−3юз377430 0.0 1019190
04:00−3юз410745 0.0 1019312
07:00−3зюз48787 0.0 1019369
10:00+1юз575467 0.0 1019824
13:00+4юз7947100 0.0 10171555
16:00+4ююз71146100 0.0 10141469
19:00+3ююз61157100 0.0 1012550
22:00+1ю4968100 0.0 1010262
19 апреля, пн
пн1901:00−1юв497872 0.0 1006227
04:00−1юв61395100 0.2 1000459
07:00+1юз51198100 3.8 996801
10:00+1юз7108536 0.3 996854
13:00+1зюз91175100 0.6 9991082
16:00+1ссз91192100 0.3 1003899
19:00−2сз81194100 1.5 1010820
22:00−3сз61093100 0.8 1015812
20 апреля, вт
вт2001:00−4сз5992100 1.1 1017641
04:00−5сз589099 0.3 1019551
07:00−6ссз5685100 0.3 1021558
10:00−4сз4576100 0.1 1022891
13:00−3сз4567100 0.1 10231135
16:00−1ссз5559100 0.2 10231425
19:00−2ссз455643 0.4 10241221
22:00−4ссз48775 0.0 1025374